SCP
0 0 0 0 0 0 0 0 0 0 0 0 0 1 1 1 1 1 1 1 1 2 2 2 2 2 2 1 1 1 1 1 1 1 1 0 0 0 0 0 0 0 1 1 1 1 1 1 1
0 0 0 1 0 0 0 0 0 0 0 0 1 1 1 1 1 1 1 1 2 2 2 2 2 2 2 2 1 1 1 1 1 1 1 0 0 0 0 0 0 0 1 1 1 1 1 1 1
0 0 1 1 0 0 0 0 0 0 0 0 1 1 1 1 1 1 1 1 1 2 2 2 2 3 2 2 1 1 1 1 1 1 1 0 0 0 0 0 0 1 1 1 1 1 1 1 1
0 0 1 0 0 0 0 0 0 0 0 0 0 1 1 1 1 2 1 1 1 2 2 2 2 3 2 2 2 1 1 1 1 1 1 0 0 0 1 1 1 1 1 1 1 1 1 1 1
0 0 0 0 0 0 0 0 0 0 0 0 0 1 1 1 2 2 1 1 2 2 2 2 2 2 2 2 2 1 1 1 1 1 1 1 1 1 1 1 1 1 1 1 1 1 1 1 1
0 0 0 0 0 0 0 0 0 0 0 0 0 1 1 2 3 2 2 2 2 2 2 2 2 2 2 2 2 2 1 1 1 1 1 1 1 1 1 1 1 1 1 1 1 1 1 1 1
0 0 0 0 0 0 0 0 0 0 0 0 1 1 1 2 3 3 2 2 3 3 3 2 2 2 2 2 2 2 2 2 1 1 1 1 1 1 1 1 1 1 1 1 1 1 1 1 1
0 0 0 0 0 0 0 0 0 0 0 0 0 1 1 3 4 3 2 3 4 4 4 3 2 2 2 2 1 1 2 2 2 1 1 1 1 1 1 1 1 2 2 2 1 1 2 1 1
0 0 0 0 0 0 0 0 0 1 1 1 1 1 2 4 4 2 2 2 4 4 4 3 2 2 2 2 1 1 2 2 2 2 1 1 1 1 1 1 1 1 2 2 2 2 2 1 1
0 0 0 0 0 0 0 0 0 1 1 1 1 1 3 5 4 2 2 2 3 3 3 2 2 2 2 2 2 2 2 2 2 2 1 1 1 1 1 1 1 1 2 2 2 2 1 1 1
0 0 0 0 0 0 0 0 0 1 1 1 1 1 3 5 4 3 2 2 2 2 2 2 2 2 2 2 2 2 2 2 2 2 2 2 2 2 1 1 1 1 1 1 1 1 1 1 1
0 0 0 0 0 0 0 0 0 0 0 0 0 1 3 4 4 3 3 2 2 2 2 2 2 2 2 2 2 2 2 2 2 3 3 2 2 2 2 2 2 1 1 1 1 1 1 1 1
0 0 0 0 0 0 0 0 0 0 0 0 0 1 2 3 4 3 2 1 1 1 1 2 2 2 2 2 2 2 2 2 2 2 3 3 2 2 2 2 2 1 1 1 1 1 1 1 1
0 0 0 0 0 0 0 0 0 0 0 0 0 1 2 3 4 3 2 1 1 1 1 1 1 1 2 2 2 2 2 2 1 2 2 3 3 3 3 2 2 2 1 1 1 1 1 1 1
0 0 0 0 0 0 0 0 0 0 0 0 0 1 2 3 4 3 2 1 0 0 1 1 1 1 1 1 1 1 2 2 1 1 2 2 3 4 4 3 3 2 2 1 1 1 1 1 1
0 0 0 0 0 0 0 0 0 0 0 0 0 1 2 3 3 3 2 1 0 0 0 0 1 1 1 1 1 1 1 2 1 1 1 2 3 4 4 4 3 2 2 2 1 1 1 1 1
0 0 0 0 0 0 0 0 0 0 0 0 0 1 1 2 2 2 1 1 0 0 0 0 1 1 1 0 0 1 1 2 2 1 1 1 2 3 4 4 3 3 2 2 1 1 1 1 1
0 0 0 0 0 0 0 0 0 0 0 0 0 0 1 1 1 1 0 0 0 0 0 0 0 0 0 0 1 1 1 2 2 1 1 1 1 2 3 4 3 3 2 2 1 1 1 1 2
0 0 0 0 0 0 0 0 0 0 0 0 0 0 0 0 0 0 0 0 0 0 0 0 0 0 0 0 1 1 1 1 2 2 1 1 1 1 3 3 3 3 2 1 1 1 2 2 2
0 0 0 0 0 0 0 0 0 0 0 0 0 0 0 0 0 0 0 0 0 0 0 0 0 0 0 0 0 1 1 1 2 2 2 1 1 1 2 3 3 2 2 1 1 2 2 2 2
0 0 0 0 0 0 0 0 0 0 0 0 0 0 0 0 0 0 0 0 0 0 0 0 0 0 0 0 0 0 1 1 1 2 2 2 1 1 1 2 2 2 1 1 1 2 2 2 2
0 0 0 0 0 0 0 0 0 0 0 0 0 0 0 0 0 0 0 0 0 0 0 0 0 0 0 0 0 0 0 1 1 1 2 2 1 1 1 1 2 2 1 1 1 2 2 2 2
0 0 0 0 0 0 0 0 0 0 0 0 0 0 0 0 0 0 0 0 0 0 0 0 0 0 0 0 0 0 0 0 1 1 1 1 1 1 1 1 1 1 1 1 2 2 3 2 2
0 0 0 0 0 0 0 0 0 0 0 0 0 0 0 0 0 0 0 0 0 0 0 0 0 0 0 0 0 0 0 0 0 0 1 1 1 1 1 1 1 1 1 1 2 3 2 2 1
0 0 0 0 0 0 0 0 0 0 0 0 0 0 0 0 0 0 0 0 0 0 0 0 0 0 0 0 0 0 0 0 0 0 0 1 1 1 1 1 1 1 1 2 2 2 2 1 1
0 0 0 0 0 0 0 0 0 0 0 0 0 0 0 0 0 0 0 0 0 0 0 0 0 0 0 0 0 0 0 0 0 0 0 1 1 1 1 1 1 1 1 1 1 1 1 0 0
0 0 0 0 0 0 0 0 0 0 0 0 0 0 0 0 0 0 0 0 0 0 0 0 0 0 0 0 0 0 0 0 0 0 0 1 1 1 1 1 1 1 1 1 1 0 0 0 0
0 0 0 0 0 0 0 0 0 0 0 0 0 0 0 0 0 0 0 0 0 0 0 0 0 0 0 0 0 0 0 0 0 0 0 0 1 1 1 1 1 1 1 1 0 0 0 0 0
0 0 0 0 0 0 0 0 0 0 0 0 0 0 0 0 0 0 0 0 0 0 0 0 0 0 0 0 0 0 0 0 0 0 0 0 0 1 1 1 1 1 1 1 1 0 0 0 0
0 0 0 0 0 0 0 0 0 0 0 0 0 0 0 0 0 0 0 0 0 0 0 0 0 0 0 0 0 0 0 0 0 0 0 0 0 0 0 1 1 1 1 1 1 1 0 0 0
Wind_Speed
13 11 6 2 3 4 7 4 3 1 2 5 6 4 5 5 5 6 2 4 6 8 8 7 7 7 7 6 6 6 6 6 7 7 7 7 7 7 7 7 7 8 8 8 8 8 8 7 8
10 9 4 3 4 5 5 4 3 2 4 3 3 3 3 5 6 7 3 4 4 7 7 7 7 7 7 6 6 6 6 6 6 6 6 6 6 7 7 7 7 7 7 7 7 7 7 7 7
10 7 3 3 4 6 4 1 4 5 3 1 2 3 4 4 5 4 3 2 3 6 7 8 8 7 6 6 6 6 6 6 6 6 6 6 6 6 6 7 7 7 7 7 7 7 6 7 7
5 3 4 4 8 7 4 1 4 3 2 2 2 3 4 5 4 4 3 2 4 6 7 7 8 7 6 6 5 5 5 5 5 5 5 5 5 6 6 6 6 6 7 7 6 6 6 6 5
3 3 5 6 9 7 3 2 1 1 1 2 2 2 4 5 7 6 3 2 4 6 7 7 7 7 6 5 5 4 4 4 4 4 4 4 4 5 5 6 6 6 6 6 6 5 5 5 5
3 3 5 7 9 6 3 1 1 1 1 1 2 2 4 5 6 4 3 3 4 5 6 6 7 7 5 5 4 4 4 3 4 4 4 4 4 4 4 5 5 5 5 4 4 4 4 4 3
3 4 6 7 7 5 1 1 1 1 1 0 1 1 5 5 4 4 4 3 4 5 5 5 4 5 5 4 4 3 3 3 4 4 3 3 3 3 4 4 4 4 3 3 3 3 3 3 2
3 4 6 7 7 4 1 1 1 2 1 2 2 1 3 5 4 4 4 3 4 4 4 4 3 3 3 3 3 3 3 3 3 3 3 2 2 2 3 3 3 3 3 2 2 2 2 1 1
3 3 5 5 4 1 2 0 1 2 1 1 2 3 4 7 6 4 3 3 3 4 3 2 2 3 2 2 3 3 3 3 3 3 3 2 1 2 2 3 3 2 2 2 1 1 1 1 1
2 3 5 4 4 3 2 2 2 1 1 1 1 3 5 5 4 3 3 2 2 2 2 2 2 2 2 1 2 2 2 2 2 2 2 1 0 1 1 3 3 3 2 2 2 2 2 2 1
2 3 3 4 5 5 3 2 2 3 3 3 2 3 4 4 3 3 2 2 2 2 2 2 1 1 1 1 1 1 1 1 1 1 1 1 1 1 1 1 1 2 2 1 2 2 2 2 2
3 3 3 3 4 4 3 3 3 5 3 2 1 2 3 4 3 3 2 2 2 2 1 1 1 1 1 1 1 1 1 1 1 1 1 1 1 0 1 1 1 1 1 1 1 1 2 2 2
5 3 2 2 2 3 4 4 4 6 3 2 1 1 3 3 3 2 2 2 2 2 1 1 1 1 1 1 0 1 1 1 0 0 1 1 1 1 0 1 1 1 1 1 1 2 2 2 2
1 2 3 3 3 4 4 5 5 6 3 3 3 3 4 3 3 2 2 2 2 2 1 1 0 0 1 1 1 0 0 0 0 0 0 0 1 1 1 1 1 1 1 1 1 2 2 2 2
1 3 4 5 5 3 3 6 8 7 4 4 4 4 4 4 3 2 2 2 2 1 1 1 1 1 1 1 0 0 0 0 0 0 0 1 1 1 1 1 1 1 1 1 1 2 1 2 2
4 4 4 4 4 3 3 7 5 4 5 5 5 5 5 4 3 2 2 2 2 2 1 1 0 1 1 1 0 0 0 0 0 0 1 1 1 1 1 1 1 1 1 1 1 2 1 1 1
5 4 4 3 4 3 5 7 4 3 4 5 5 5 4 4 3 3 3 2 2 2 2 1 1 1 1 0 0 0 0 0 1 1 1 1 1 1 1 2 2 1 1 1 2 1 1 2 2
3 4 4 4 3 3 6 8 5 4 5 5 5 4 3 3 3 2 2 2 2 2 2 2 1 1 1 1 0 0 0 0 0 1 1 1 1 1 1 1 1 1 1 1 1 2 2 2 2
4 4 6 3 0 3 7 9 8 6 6 6 5 3 3 3 2 2 2 2 2 2 2 2 1 0 1 0 0 0 0 0 1 1 1 1 1 1 1 1 1 1 1 2 2 2 2 2 1
4 5 5 3 0 3 6 10 9 7 6 5 4 3 3 2 2 2 2 2 2 2 2 1 1 0 0 0 0 1 1 1 1 1 1 1 1 2 1 1 1 1 1 2 2 2 2 2 1
4 4 4 4 4 5 5 8 7 5 4 5 4 3 3 3 3 2 2 2 2 1 1 0 0 0 0 0 0 0 0 1 1 1 1 1 2 1 1 1 1 2 2 2 2 2 3 3 2
3 2 3 4 3 3 2 5 5 4 5 6 5 4 3 2 3 2 2 2 2 1 1 1 1 0 0 0 0 1 1 1 2 2 2 2 2 1 2 2 2 2 2 2 3 2 2 3 3
1 2 3 4 4 4 4 4 7 3 5 5 5 4 3 3 3 3 3 3 2 2 2 1 1 1 1 1 1 1 1 1 1 1 2 2 2 2 2 2 2 2 2 3 3 3 3 3 3
1 1 3 3 1 5 6 5 6 3 3 4 5 4 4 4 3 3 3 3 2 2 2 1 1 1 1 1 1 1 2 2 2 2 2 2 2 2 2 3 2 2 2 3 3 3 3 3 4
2 1 1 1 2 6 2 4 6 2 2 4 5 5 5 4 3 3 3 2 2 2 1 1 2 2 2 1 1 1 2 2 3 2 2 2 2 2 3 3 2 2 3 4 4 4 4 4 5
4 2 2 3 3 3 2 6 4 3 4 5 5 4 4 3 3 2 2 1 1 1 2 2 2 2 2 2 2 2 2 2 2 2 2 3 2 2 3 3 4 4 3 4 4 4 4 4 4
3 3 1 1 2 3 5 4 1 3 3 3 3 3 3 3 3 2 1 1 2 1 2 1 1 2 2 2 2 2 2 2 2 2 2 2 3 3 3 3 4 4 3 4 4 3 4 4 4
2 1 1 2 2 4 5 5 4 5 4 4 3 3 3 3 2 2 1 1 2 1 1 1 1 1 2 2 2 3 3 2 2 2 3 3 3 3 3 4 4 4 3 3 3 4 4 5 5
4 3 3 2 3 3 4 4 0 4 4 3 2 2 3 2 1 1 1 1 1 2 2 2 1 1 2 2 2 3 3 3 3 3 3 3 3 3 3 4 4 4 4 4 3 3 4 4 5
3 4 5 4 4 4 3 6 1 3 3 3 1 1 2 2 1 1 1 1 1 2 2 2 2 1 2 2 2 3 3 3 3 4 3 3 4 4 4 4 4 5 4 4 4 4 4 4 5
Wind_Direction
306 286 262 259 246 233 242 244 265 72 61 39 23 16 38 31 31 99 123 55 80 105 115 117 110 112 112 106 100 98 98 98 102 99 95 92 92 92 87 83 80 79 76 74 73 73 77 78 78
297 289 274 239 241 236 234 219 225 56 70 62 29 8 56 72 69 93 77 43 78 105 114 115 113 113 113 108 103 100 99 97 102 100 96 94 94 95 89 82 78 78 75 75 75 74 76 76 77
279 270 256 235 236 242 251 35 94 91 98 88 57 20 29 56 72 83 72 69 87 102 110 113 114 111 110 110 110 106 104 98 103 102 96 98 100 101 95 88 81 76 74 75 77 76 79 79 78
277 248 241 246 245 253 266 40 74 86 114 121 110 83 76 49 62 81 82 88 94 102 106 117 119 115 111 109 113 113 110 103 108 105 98 99 103 104 98 93 89 84 79 75 77 75 80 82 81
249 250 231 236 247 254 275 59 75 105 162 136 119 106 88 75 80 87 77 79 93 99 107 119 117 117 114 113 112 113 110 108 116 113 100 100 105 108 103 100 95 89 84 81 79 73 79 81 80
253 244 238 232 239 234 223 135 181 263 246 130 126 134 103 99 87 91 79 61 86 95 104 117 113 115 116 117 114 111 108 105 108 107 102 99 104 114 117 111 105 96 89 86 86 79 75 79 76
266 258 253 254 252 243 208 84 205 269 278 332 11 110 119 100 91 97 88 60 73 90 102 114 123 121 117 115 115 112 109 108 111 111 112 117 120 122 132 125 116 106 98 91 89 84 76 79 74
301 282 255 253 253 253 119 99 344 357 336 9 12 85 122 117 109 97 87 69 67 82 97 109 120 120 123 125 118 119 122 119 122 124 119 117 134 146 142 136 129 124 112 100 99 101 80 82 72
283 262 254 266 277 291 94 57 29 14 15 3 26 47 91 112 110 101 87 68 63 62 69 98 109 115 126 143 135 135 140 137 142 144 143 157 184 170 154 147 143 148 142 143 144 161 134 156 234
226 242 255 313 347 354 32 14 6 289 226 242 122 98 101 110 119 129 126 109 77 55 42 49 78 100 114 128 135 158 159 159 175 161 164 178 164 124 144 153 172 175 178 184 195 211 214 213 219
224 240 281 330 357 355 356 347 328 279 259 233 202 149 129 134 143 152 143 136 118 90 56 37 28 70 104 103 125 138 142 159 179 168 161 156 142 139 128 134 160 179 192 197 207 224 228 227 213
255 271 294 311 343 326 307 299 281 266 283 344 34 124 149 160 168 168 158 157 136 117 86 54 20 48 78 91 98 113 125 137 163 185 177 157 151 128 143 144 173 185 201 205 218 236 246 247 231
242 260 282 311 316 297 290 268 272 268 278 319 315 190 200 186 178 172 173 173 151 133 112 81 38 60 66 70 87 109 131 139 160 162 196 165 155 159 171 168 179 202 211 207 223 247 255 264 261
268 266 266 259 252 262 265 263 256 252 220 222 225 225 212 208 197 196 188 177 159 151 147 121 75 65 84 73 71 70 160 137 148 157 229 192 165 166 179 216 211 226 224 231 225 237 234 240 248
282 261 250 233 229 229 267 262 234 235 212 217 225 228 209 205 207 210 188 182 172 152 145 157 165 128 106 88 66 86 157 146 238 249 246 224 184 177 193 226 231 239 230 230 249 253 242 243 244
229 236 242 215 205 193 212 260 238 193 195 223 225 225 209 199 199 194 182 200 180 146 139 162 147 118 115 110 106 129 116 205 253 269 264 241 217 190 194 229 238 244 251 234 242 247 251 253 260
210 233 243 231 200 210 220 258 247 181 208 229 230 219 203 194 190 192 184 189 174 160 155 140 133 131 121 136 146 120 152 203 240 257 264 257 242 216 209 232 234 230 229 243 253 254 245 247 256
235 248 257 242 201 236 246 258 255 223 224 238 236 219 199 196 195 190 176 170 158 149 132 123 107 122 120 119 122 88 8 287 283 274 270 262 241 228 220 242 255 262 232 240 245 249 249 241 246
299 292 282 282 198 254 257 267 263 242 227 235 232 214 201 200 181 168 136 126 128 117 110 107 90 85 101 109 177 195 248 290 297 278 298 292 270 257 220 242 260 274 254 245 253 256 249 252 253
279 285 286 298 28 278 275 273 262 236 223 226 223 209 204 198 179 164 136 118 110 116 111 118 97 79 89 150 216 209 226 257 256 288 301 287 276 275 260 242 249 259 262 264 257 254 252 259 228
262 263 281 299 310 262 275 282 243 218 216 219 215 201 198 191 177 158 142 120 99 96 101 115 103 311 46 295 26 37 356 330 330 310 295 311 311 297 264 246 246 248 246 251 256 246 239 242 243
251 278 297 302 304 283 246 288 262 208 209 208 202 197 196 172 149 134 112 92 73 69 67 51 66 7 10 135 191 212 243 257 261 246 257 280 281 285 274 244 236 238 238 250 256 257 250 234 237
266 329 286 270 262 283 248 251 273 200 206 196 176 173 168 144 130 118 108 99 74 61 69 50 24 351 334 289 238 247 270 264 269 262 261 273 276 278 283 260 228 238 242 243 251 257 253 243 238
242 302 264 259 246 262 226 217 269 213 193 162 153 148 135 115 106 99 97 94 81 64 61 50 22 342 320 295 272 256 265 276 281 277 269 269 267 275 274 262 244 243 245 244 242 243 246 248 248
210 130 43 295 238 246 199 218 249 193 126 124 129 122 110 103 100 92 89 85 77 62 55 49 27 353 333 306 274 266 261 261 257 264 261 270 272 279 267 278 260 249 245 245 241 238 244 240 241
217 203 177 223 251 273 233 233 245 136 102 96 99 107 116 119 112 104 91 83 72 55 49 48 27 358 354 351 320 287 272 262 263 269 272 269 265 266 277 279 276 267 261 258 245 239 242 242 241
206 220 247 285 294 280 246 233 221 128 126 129 126 135 145 136 120 106 78 59 54 42 42 38 17 343 341 341 337 311 300 294 291 290 285 278 279 278 282 281 278 272 268 260 252 246 245 243 241
255 238 158 188 232 263 261 236 216 171 176 163 154 155 139 122 114 111 90 59 41 28 28 23 0 326 326 339 334 327 318 310 305 300 297 296 289 285 281 278 281 280 276 269 254 253 251 246 247
192 201 198 216 238 238 276 269 72 160 163 161 166 162 142 130 129 113 85 59 31 21 10 353 344 339 339 339 330 324 324 327 322 309 303 303 298 292 285 284 282 278 277 273 264 258 255 253 256
226 220 191 193 231 223 255 271 50 117 141 147 158 147 135 141 140 120 93 58 28 358 342 333 335 336 330 333 329 320 321 322 319 311 308 308 303 301 292 286 287 282 279 274 267 265 262 257 259